owner,sensor,date,latitude,longitude,vertical_datum,direction_of_sea_water_velocity,sea_water_speed,upward_sea_water_velocity,qcFlag 
TABS,ioos:station:wmo:42043:1,2010-05-01T00:00:00Z,28.9818,-94.9186,2.0,237.0506406,44.60440001,-99999.0,'11111222,11111222,99999999' 
TABS,ioos:station:wmo:42043:1,2010-05-01T00:30:00Z,28.9818,-94.9186,2.0,237.7489286,46.04355004,-99999.0,'11111222,11111222,99999999' 
TABS,ioos:station:wmo:42043:1,2010-05-01T01:00:00Z,28.9818,-94.9186,2.0,242.6049093,46.9444608,-99999.0,'11111222,11111222,99999999' 
TABS,ioos:station:wmo:42043:1,2010-05-01T01:30:00Z,28.9818,-94.9186,2.0,244.8804814,45.01743773,-99999.0,'11111222,11111222,99999999' 
TABS,ioos:station:wmo:42043:1,2010-05-01T02:00:00Z,28.9818,-94.9186,2.0,249.522334,48.53700959,-99999.0,'11111222,11111222,99999999' 
TABS,ioos:station:wmo:42043:1,2010-05-01T02:30:00Z,28.9818,-94.9186,2.0,243.9360131,48.54689485,-99999.0,'11111222,11111222,99999999' 
TABS,ioos:station:wmo:42043:1,2010-05-01T03:00:00Z,28.9818,-94.9186,2.0,244.9283931,46.49023661,-99999.0,'11111222,11111222,99999999' 
TABS,ioos:station:wmo:42043:1,2010-05-01T03:30:00Z,28.9818,-94.9186,2.0,248.5224286,42.66232999,-99999.0,'11111222,11111222,99999999' 
TABS,ioos:station:wmo:42043:1,2010-05-01T04:00:00Z,28.9818,-94.9186,2.0,245.1261869,40.29809053,-99999.0,'11111222,11111222,99999999' 
TABS,ioos:station:wmo:42043:1,2010-05-01T04:30:00Z,28.9818,-94.9186,2.0,250.0240861,38.81517744,-99999.0,'11111222,11111222,99999999' 
TABS,ioos:station:wmo:42043:1,2010-05-01T05:00:00Z,28.9818,-94.9186,2.0,251.3124891,36.64166617,-99999.0,'11111222,11111222,99999999' 
TABS,ioos:station:wmo:42043:1,2010-05-01T05:30:00Z,28.9818,-94.9186,2.0,249.7566362,32.77435125,-99999.0,'11111222,11111222,99999999' 
TABS,ioos:station:wmo:42043:1,2010-05-01T06:00:00Z,28.9818,-94.9186,2.0,256.5597231,31.9242682,-99999.0,'11111222,11111222,99999999' 
TABS,ioos:station:wmo:42043:1,2010-05-01T06:30:00Z,28.9818,-94.9186,2.0,249.9690483,25.77939681,-99999.0,'11111222,11111222,99999999' 
TABS,ioos:station:wmo:42043:1,2010-05-01T07:00:00Z,28.9818,-94.9186,2.0,261.9433083,28.5416818,-99999.0,'11111222,11111222,99999999' 
TABS,ioos:station:wmo:42043:1,2010-05-01T07:30:00Z,28.9818,-94.9186,2.0,249.1586016,28.47295208,-99999.0,'11111222,11111222,99999999' 
TABS,ioos:station:wmo:42043:1,2010-05-01T08:00:00Z,28.9818,-94.9186,2.0,257.0890739,26.04850284,-99999.0,'11111222,11111222,99999999' 
TABS,ioos:station:wmo:42043:1,2010-05-01T08:30:00Z,28.9818,-94.9186,2.0,255.6234142,27.38760486,-99999.0,'11111222,11111222,99999999' 
TABS,ioos:station:wmo:42043:1,2010-05-01T09:00:00Z,28.9818,-94.9186,2.0,257.8921879,22.12208173,-99999.0,'11111222,11111222,99999999' 
TABS,ioos:station:wmo:42043:1,2010-05-01T09:30:00Z,28.9818,-94.9186,2.0,248.5518929,23.16407779,-99999.0,'11111222,11111222,99999999' 
TABS,ioos:station:wmo:42043:1,2010-05-01T10:00:00Z,28.9818,-94.9186,2.0,243.6651548,22.22669566,-99999.0,'11111222,11111222,99999999' 
TABS,ioos:station:wmo:42043:1,2010-05-01T10:30:00Z,28.9818,-94.9186,2.0,243.9691053,25.40730997,-99999.0,'11111222,11111222,99999999' 
TABS,ioos:station:wmo:42043:1,2010-05-01T11:00:00Z,28.9818,-94.9186,2.0,238.3245904,25.55697361,-99999.0,'11111222,11111222,99999999' 
TABS,ioos:station:wmo:42043:1,2010-05-01T11:30:00Z,28.9818,-94.9186,2.0,233.3055451,28.68413499,-99999.0,'11111222,11111222,99999999' 
TABS,ioos:station:wmo:42043:1,2010-05-01T12:00:00Z,28.9818,-94.9186,2.0,233.4869872,29.51257359,-99999.0,'11111222,11111222,99999999' 
TABS,ioos:station:wmo:42043:1,2010-05-01T12:30:00Z,28.9818,-94.9186,2.0,228.1092683,31.67552525,-99999.0,'11111222,11111222,99999999' 
TABS,ioos:station:wmo:42043:1,2010-05-01T13:00:00Z,28.9818,-94.9186,2.0,224.9996843,32.92289173,-99999.0,'11111222,11111222,99999999' 
TABS,ioos:station:wmo:42043:1,2010-05-01T13:30:00Z,28.9818,-94.9186,2.0,227.6126253,33.6579218,-99999.0,'11111222,11111222,99999999' 
TABS,ioos:station:wmo:42043:1,2010-05-01T14:00:00Z,28.9818,-94.9186,2.0,227.2701287,38.55344343,-99999.0,'11111222,11111222,99999999' 
TABS,ioos:station:wmo:42043:1,2010-05-01T14:30:00Z,28.9818,-94.9186,2.0,231.8662017,40.63188034,-99999.0,'11111222,11111222,99999999' 
TABS,ioos:station:wmo:42043:1,2010-05-01T15:00:00Z,28.9818,-94.9186,2.0,234.215784,40.30924088,-99999.0,'11111222,11111222,99999999' 
TABS,ioos:station:wmo:42043:1,2010-05-01T15:30:00Z,28.9818,-94.9186,2.0,231.3687827,40.22099576,-99999.0,'11111222,11111222,99999999' 
TABS,ioos:station:wmo:42043:1,2010-05-01T16:00:00Z,28.9818,-94.9186,2.0,235.2536375,42.7413617,-99999.0,'11111222,11111222,99999999' 
TABS,ioos:station:wmo:42043:1,2010-05-01T16:30:00Z,28.9818,-94.9186,2.0,239.9217032,44.5949616,-99999.0,'11111222,11111222,99999999' 
TABS,ioos:station:wmo:42043:1,2010-05-01T17:00:00Z,28.9818,-94.9186,2.0,239.9200026,42.45781436,-99999.0,'11111222,11111222,99999999' 
TABS,ioos:station:wmo:42043:1,2010-05-01T17:30:00Z,28.9818,-94.9186,2.0,245.9007677,49.05557359,-99999.0,'11111222,11111222,99999999' 
TABS,ioos:station:wmo:42043:1,2010-05-01T18:00:00Z,28.9818,-94.9186,2.0,243.9685508,47.98810269,-99999.0,'11111222,11111222,99999999' 
TABS,ioos:station:wmo:42043:1,2010-05-01T18:30:00Z,28.9818,-94.9186,2.0,251.6014485,49.26829609,-99999.0,'11111222,11111222,99999999' 
TABS,ioos:station:wmo:42043:1,2010-05-01T19:00:00Z,28.9818,-94.9186,2.0,249.9364539,47.07686162,-99999.0,'11111222,11111222,99999999' 
TABS,ioos:station:wmo:42043:1,2010-05-01T19:30:00Z,28.9818,-94.9186,2.0,259.9711824,47.08945636,-99999.0,'11111222,11111222,99999999' 
TABS,ioos:station:wmo:42043:1,2010-05-01T20:00:00Z,28.9818,-94.9186,2.0,258.9951132,49.29645221,-99999.0,'11111222,11111222,99999999' 
TABS,ioos:station:wmo:42043:1,2010-05-01T20:30:00Z,28.9818,-94.9186,2.0,258.5877531,47.40722835,-99999.0,'11111222,11111222,99999999' 
TABS,ioos:station:wmo:42043:1,2010-05-01T21:00:00Z,28.9818,-94.9186,2.0,256.4253956,45.71702637,-99999.0,'11111222,11111222,99999999' 
TABS,ioos:station:wmo:42043:1,2010-05-01T21:30:00Z,28.9818,-94.9186,2.0,264.7872097,46.23117563,-99999.0,'11111222,11111222,99999999' 
TABS,ioos:station:wmo:42043:1,2010-05-01T22:00:00Z,28.9818,-94.9186,2.0,260.9603741,50.09209319,-99999.0,'11111222,11111222,99999999' 
TABS,ioos:station:wmo:42043:1,2010-05-01T22:30:00Z,28.9818,-94.9186,2.0,260.0177731,52.03770652,-99999.0,'11111222,11111222,99999999' 
TABS,ioos:station:wmo:42043:1,2010-05-01T23:00:00Z,28.9818,-94.9186,2.0,248.9659521,53.63362844,-99999.0,'11111222,11111222,99999999' 
TABS,ioos:station:wmo:42043:1,2010-05-01T23:30:00Z,28.9818,-94.9186,2.0,241.599542,49.99728793,-99999.0,'11111222,11111222,99999999' 
TABS,ioos:station:wmo:42043:1,2010-05-02T00:00:00Z,28.9818,-94.9186,2.0,239.0895928,53.06683051,-99999.0,'11111222,11111222,99999999' 
TABS,ioos:station:wmo:42043:1,2010-05-02T00:30:00Z,28.9818,-94.9186,2.0,247.4152146,49.73385567,-99999.0,'11111222,11111222,99999999' 
TABS,ioos:station:wmo:42043:1,2010-05-02T01:00:00Z,28.9818,-94.9186,2.0,244.4255678,49.38871227,-99999.0,'11111222,11111222,99999999' 
TABS,ioos:station:wmo:42043:1,2010-05-02T01:30:00Z,28.9818,-94.9186,2.0,240.4643664,56.96209266,-99999.0,'11111222,11111222,99999999' 
TABS,ioos:station:wmo:42043:1,2010-05-02T02:00:00Z,28.9818,-94.9186,2.0,232.4527984,54.67581641,-99999.0,'11111222,11111222,99999999' 
TABS,ioos:station:wmo:42043:1,2010-05-02T02:30:00Z,28.9818,-94.9186,2.0,229.0939689,56.55022988,-99999.0,'11111222,11111222,99999999' 
TABS,ioos:station:wmo:42043:1,2010-05-02T03:00:00Z,28.9818,-94.9186,2.0,236.4907721,60.51809399,-99999.0,'11111222,11111222,99999999' 
TABS,ioos:station:wmo:42043:1,2010-05-02T03:30:00Z,28.9818,-94.9186,2.0,235.0146371,60.38066992,-99999.0,'11111222,11111222,99999999' 
TABS,ioos:station:wmo:42043:1,2010-05-02T04:00:00Z,28.9818,-94.9186,2.0,237.1874167,58.11166578,-99999.0,'11111222,11111222,99999999' 
TABS,ioos:station:wmo:42043:1,2010-05-02T04:30:00Z,28.9818,-94.9186,2.0,244.6495321,55.47142868,-99999.0,'11111222,11111222,99999999' 
TABS,ioos:station:wmo:42043:1,2010-05-02T05:00:00Z,28.9818,-94.9186,2.0,241.7907753,56.59133679,-99999.0,'11111222,11111222,99999999' 
TABS,ioos:station:wmo:42043:1,2010-05-02T05:30:00Z,28.9818,-94.9186,2.0,243.8460673,54.17685207,-99999.0,'11111222,11111222,99999999' 
TABS,ioos:station:wmo:42043:1,2010-05-02T06:00:00Z,28.9818,-94.9186,2.0,245.1969769,53.80288561,-99999.0,'11111222,11111222,99999999' 
TABS,ioos:station:wmo:42043:1,2010-05-02T06:30:00Z,28.9818,-94.9186,2.0,241.6830951,58.96582909,-99999.0,'11111222,11111222,99999999' 
TABS,ioos:station:wmo:42043:1,2010-05-02T07:00:00Z,28.9818,-94.9186,2.0,237.9303851,56.08876269,-99999.0,'11111222,11111222,99999999' 
TABS,ioos:station:wmo:42043:1,2010-05-02T07:30:00Z,28.9818,-94.9186,2.0,241.0563132,51.51418542,-99999.0,'11111222,11111222,99999999' 
TABS,ioos:station:wmo:42043:1,2010-05-02T08:00:00Z,28.9818,-94.9186,2.0,241.4162416,49.01371339,-99999.0,'11111222,11111222,99999999' 
TABS,ioos:station:wmo:42043:1,2010-05-02T08:30:00Z,28.9818,-94.9186,2.0,240.4057929,51.29102163,-99999.0,'11111222,11111222,99999999' 
TABS,ioos:station:wmo:42043:1,2010-05-02T09:00:00Z,28.9818,-94.9186,2.0,240.3195671,50.44867986,-99999.0,'11111222,11111222,99999999' 
TABS,ioos:station:wmo:42043:1,2010-05-02T09:30:00Z,28.9818,-94.9186,2.0,243.1205782,53.040329,-99999.0,'11111222,11111222,99999999' 
TABS,ioos:station:wmo:42043:1,2010-05-02T10:00:00Z,28.9818,-94.9186,2.0,244.4373714,48.80742259,-99999.0,'11111222,11111222,99999999' 
TABS,ioos:station:wmo:42043:1,2010-05-02T10:30:00Z,28.9818,-94.9186,2.0,241.2042517,44.01232668,-99999.0,'11111222,11111222,99999999' 
TABS,ioos:station:wmo:42043:1,2010-05-02T11:00:00Z,28.9818,-94.9186,2.0,241.0016405,47.19674565,-99999.0,'11111222,11111222,99999999' 
TABS,ioos:station:wmo:42043:1,2010-05-02T11:30:00Z,28.9818,-94.9186,2.0,239.4331857,50.95002453,-99999.0,'11111222,11111222,99999999' 
TABS,ioos:station:wmo:42043:1,2010-05-02T12:00:00Z,28.9818,-94.9186,2.0,243.8012949,46.11761052,-99999.0,'11111222,11111222,99999999' 
TABS,ioos:station:wmo:42043:1,2010-05-02T12:30:00Z,28.9818,-94.9186,2.0,241.8458218,48.06710726,-99999.0,'11111222,11111222,99999999' 
TABS,ioos:station:wmo:42043:1,2010-05-02T13:00:00Z,28.9818,-94.9186,2.0,240.8195135,48.32255891,-99999.0,'11111222,11111222,99999999' 
TABS,ioos:station:wmo:42043:1,2010-05-02T13:30:00Z,28.9818,-94.9186,2.0,233.8021869,47.54727437,-99999.0,'11111222,11111222,99999999' 
TABS,ioos:station:wmo:42043:1,2010-05-02T14:00:00Z,28.9818,-94.9186,2.0,233.5983742,51.59772573,-99999.0,'11111222,11111222,99999999' 
TABS,ioos:station:wmo:42043:1,2010-05-02T14:30:00Z,28.9818,-94.9186,2.0,225.1944139,54.09398118,-99999.0,'11111222,11111222,99999999' 
TABS,ioos:station:wmo:42043:1,2010-05-02T15:00:00Z,28.9818,-94.9186,2.0,223.6588188,52.27657697,-99999.0,'11111222,11111222,99999999' 
TABS,ioos:station:wmo:42043:1,2010-05-02T15:30:00Z,28.9818,-94.9186,2.0,225.2836658,52.78616959,-99999.0,'11111222,11111222,99999999' 
TABS,ioos:station:wmo:42043:1,2010-05-02T16:00:00Z,28.9818,-94.9186,2.0,224.4485697,55.13566632,-99999.0,'11111222,11111222,99999999' 
TABS,ioos:station:wmo:42043:1,2010-05-02T16:30:00Z,28.9818,-94.9186,2.0,230.0718909,55.82548701,-99999.0,'11111222,11111222,99999999' 
TABS,ioos:station:wmo:42043:1,2010-05-02T17:00:00Z,28.9818,-94.9186,2.0,232.8620424,56.4986168,-99999.0,'11111222,11111222,99999999' 
TABS,ioos:station:wmo:42043:1,2010-05-02T17:30:00Z,28.9818,-94.9186,2.0,229.8163269,52.04300145,-99999.0,'11111222,11111222,99999999' 
TABS,ioos:station:wmo:42043:1,2010-05-02T18:00:00Z,28.9818,-94.9186,2.0,229.8426876,55.5293589,-99999.0,'11111222,11111222,99999999' 
TABS,ioos:station:wmo:42043:1,2010-05-02T18:30:00Z,28.9818,-94.9186,2.0,231.4498185,56.96448455,-99999.0,'11111222,11111222,99999999' 
TABS,ioos:station:wmo:42043:1,2010-05-02T19:00:00Z,28.9818,-94.9186,2.0,228.0507185,55.66456772,-99999.0,'11111222,11111222,99999999' 
TABS,ioos:station:wmo:42043:1,2010-05-02T19:30:00Z,28.9818,-94.9186,2.0,230.714418,58.22973295,-99999.0,'11111222,11111222,99999999' 
TABS,ioos:station:wmo:42043:1,2010-05-02T20:00:00Z,28.9818,-94.9186,2.0,231.5359572,60.68947932,-99999.0,'11111222,11111222,99999999' 
TABS,ioos:station:wmo:42043:1,2010-05-02T20:30:00Z,28.9818,-94.9186,2.0,230.6999464,66.42172009,-99999.0,'11111222,11111222,99999999' 
TABS,ioos:station:wmo:42043:1,2010-05-02T21:00:00Z,28.9818,-94.9186,2.0,232.1410448,67.57206079,-99999.0,'11111222,11111222,99999999' 
TABS,ioos:station:wmo:42043:1,2010-05-02T21:30:00Z,28.9818,-94.9186,2.0,233.6447404,67.64673237,-99999.0,'11111222,11111222,99999999' 
TABS,ioos:station:wmo:42043:1,2010-05-02T22:00:00Z,28.9818,-94.9186,2.0,233.7906978,67.2724758,-99999.0,'11111222,11111222,99999999' 
TABS,ioos:station:wmo:42043:1,2010-05-02T22:30:00Z,28.9818,-94.9186,2.0,235.3960959,69.23815783,-99999.0,'11111222,11111222,99999999' 
TABS,ioos:station:wmo:42043:1,2010-05-02T23:00:00Z,28.9818,-94.9186,2.0,244.948488,65.67835336,-99999.0,'11111222,11111222,99999999' 
TABS,ioos:station:wmo:42043:1,2010-05-02T23:30:00Z,28.9818,-94.9186,2.0,250.9553708,57.09498927,-99999.0,'11111222,11111222,99999999' 
TABS,ioos:station:wmo:42043:1,2010-05-03T00:00:00Z,28.9818,-94.9186,2.0,256.7461425,55.74473966,-99999.0,'11111222,11111222,99999999' 
TABS,ioos:station:wmo:42043:1,2010-05-03T00:30:00Z,28.9818,-94.9186,2.0,256.2313828,53.40450356,-99999.0,'11111222,11111222,99999999' 
TABS,ioos:station:wmo:42043:1,2010-05-03T01:00:00Z,28.9818,-94.9186,2.0,262.2210901,54.15832808,-99999.0,'11111222,11111222,99999999' 
TABS,ioos:station:wmo:42043:1,2010-05-03T01:30:00Z,28.9818,-94.9186,2.0,258.5590715,52.48277527,-99999.0,'11111222,11111222,99999999' 
TABS,ioos:station:wmo:42043:1,2010-05-03T02:00:00Z,28.9818,-94.9186,2.0,259.4820665,52.04439355,-99999.0,'11111222,11111222,99999999' 
TABS,ioos:station:wmo:42043:1,2010-05-03T02:30:00Z,28.9818,-94.9186,2.0,261.0516743,49.44170001,-99999.0,'11111222,11111222,99999999' 
TABS,ioos:station:wmo:42043:1,2010-05-03T03:00:00Z,28.9818,-94.9186,2.0,259.8341466,48.89758481,-99999.0,'11111222,11111222,99999999' 
TABS,ioos:station:wmo:42043:1,2010-05-03T03:30:00Z,28.9818,-94.9186,2.0,260.7576993,40.59698634,-99999.0,'11111222,11111222,99999999' 
TABS,ioos:station:wmo:42043:1,2010-05-03T04:00:00Z,28.9818,-94.9186,2.0,259.9477102,39.30330266,-99999.0,'11111222,11111222,99999999' 
TABS,ioos:station:wmo:42043:1,2010-05-03T04:30:00Z,28.9818,-94.9186,2.0,258.9367323,35.02078383,-99999.0,'11111222,11111222,99999999' 
TABS,ioos:station:wmo:42043:1,2010-05-03T05:00:00Z,28.9818,-94.9186,2.0,256.6791032,32.81277952,-99999.0,'11111222,11111222,99999999' 
TABS,ioos:station:wmo:42043:1,2010-05-03T05:30:00Z,28.9818,-94.9186,2.0,251.495263,33.93442647,-99999.0,'11111222,11111222,99999999' 
TABS,ioos:station:wmo:42043:1,2010-05-03T06:00:00Z,28.9818,-94.9186,2.0,252.5116226,35.20728334,-99999.0,'11111222,11111222,99999999' 
TABS,ioos:station:wmo:42043:1,2010-05-03T06:30:00Z,28.9818,-94.9186,2.0,249.0853796,30.70283375,-99999.0,'11111222,11111222,99999999' 
TABS,ioos:station:wmo:42043:1,2010-05-03T07:00:00Z,28.9818,-94.9186,2.0,242.9118956,30.3939007,-99999.0,'11111222,11111222,99999999' 
TABS,ioos:station:wmo:42043:1,2010-05-03T07:30:00Z,28.9818,-94.9186,2.0,230.917961,32.02585986,-99999.0,'11111222,11111222,99999999' 
TABS,ioos:station:wmo:42043:1,2010-05-03T08:00:00Z,28.9818,-94.9186,2.0,231.4717836,32.55763044,-99999.0,'11111222,11111222,99999999' 
TABS,ioos:station:wmo:42043:1,2010-05-03T08:30:00Z,28.9818,-94.9186,2.0,226.6753807,38.44769564,-99999.0,'11111222,11111222,99999999' 
TABS,ioos:station:wmo:42043:1,2010-05-03T09:00:00Z,28.9818,-94.9186,2.0,225.4482859,35.22206837,-99999.0,'11111222,11111222,99999999' 
TABS,ioos:station:wmo:42043:1,2010-05-03T09:30:00Z,28.9818,-94.9186,2.0,228.3878859,30.62883609,-99999.0,'11111222,11111222,99999999' 
TABS,ioos:station:wmo:42043:1,2010-05-03T10:00:00Z,28.9818,-94.9186,2.0,228.9786096,31.38634098,-99999.0,'11111222,11111222,99999999' 
TABS,ioos:station:wmo:42043:1,2010-05-03T10:30:00Z,28.9818,-94.9186,2.0,226.6501408,31.67030944,-99999.0,'11111222,11111222,99999999' 
TABS,ioos:station:wmo:42043:1,2010-05-03T11:00:00Z,28.9818,-94.9186,2.0,223.7690782,38.19257519,-99999.0,'11111222,11111222,99999999' 
TABS,ioos:station:wmo:42043:1,2010-05-03T11:30:00Z,28.9818,-94.9186,2.0,231.7848589,43.03185448,-99999.0,'11111222,11111222,99999999' 
TABS,ioos:station:wmo:42043:1,2010-05-03T12:00:00Z,28.9818,-94.9186,2.0,237.8456916,49.86882794,-99999.0,'11111222,11111222,99999999' 
TABS,ioos:station:wmo:42043:1,2010-05-03T12:30:00Z,28.9818,-94.9186,2.0,236.512927,52.36125476,-99999.0,'11111222,11111222,99999999' 
TABS,ioos:station:wmo:42043:1,2010-05-03T13:00:00Z,28.9818,-94.9186,2.0,239.205844,52.03632962,-99999.0,'11111222,11111222,99999999' 
TABS,ioos:station:wmo:42043:1,2010-05-03T13:30:00Z,28.9818,-94.9186,2.0,238.7671836,55.94859873,-99999.0,'11111222,11111222,99999999' 
TABS,ioos:station:wmo:42043:1,2010-05-03T14:00:00Z,28.9818,-94.9186,2.0,239.871667,58.43406969,-99999.0,'11111222,11111222,99999999' 
TABS,ioos:station:wmo:42043:1,2010-05-03T14:30:00Z,28.9818,-94.9186,2.0,242.6075845,59.49007732,-99999.0,'11111222,11111222,99999999' 
TABS,ioos:station:wmo:42043:1,2010-05-03T15:00:00Z,28.9818,-94.9186,2.0,242.3072436,64.55436159,-99999.0,'11111222,11111222,99999999' 
TABS,ioos:station:wmo:42043:1,2010-05-03T15:30:00Z,28.9818,-94.9186,2.0,244.6043873,63.30733449,-99999.0,'11111222,11111222,99999999' 
TABS,ioos:station:wmo:42043:1,2010-05-03T16:00:00Z,28.9818,-94.9186,2.0,243.4425208,64.61789303,-99999.0,'11111222,11111222,99999999' 
TABS,ioos:station:wmo:42043:1,2010-05-03T16:30:00Z,28.9818,-94.9186,2.0,244.3773821,60.61011962,-99999.0,'11111222,11111222,99999999' 
TABS,ioos:station:wmo:42043:1,2010-05-03T17:00:00Z,28.9818,-94.9186,2.0,243.5218612,61.65740994,-99999.0,'11111222,11111222,99999999' 
TABS,ioos:station:wmo:42043:1,2010-05-03T17:30:00Z,28.9818,-94.9186,2.0,243.5730966,61.0493063,-99999.0,'11111222,11111222,99999999' 
TABS,ioos:station:wmo:42043:1,2010-05-03T18:00:00Z,28.9818,-94.9186,2.0,245.6499021,60.39213856,-99999.0,'11111222,11111222,99999999' 
TABS,ioos:station:wmo:42043:1,2010-05-03T18:30:00Z,28.9818,-94.9186,2.0,242.0340894,54.52715379,-99999.0,'11111222,11111222,99999999' 
TABS,ioos:station:wmo:42043:1,2010-05-03T19:00:00Z,28.9818,-94.9186,2.0,247.2348952,52.02247399,-99999.0,'11111222,11111222,99999999' 
TABS,ioos:station:wmo:42043:1,2010-05-03T19:30:00Z,28.9818,-94.9186,2.0,246.666702,46.48129194,-99999.0,'11111222,11111222,99999999' 
TABS,ioos:station:wmo:42043:1,2010-05-03T20:00:00Z,28.9818,-94.9186,2.0,254.197937,49.83319576,-99999.0,'11111222,11111222,99999999' 
TABS,ioos:station:wmo:42043:1,2010-05-03T20:30:00Z,28.9818,-94.9186,2.0,254.3984562,44.58254928,-99999.0,'11111222,11111222,99999999' 
TABS,ioos:station:wmo:42043:1,2010-05-03T21:00:00Z,28.9818,-94.9186,2.0,253.0563211,42.27500444,-99999.0,'11111222,11111222,99999999' 
TABS,ioos:station:wmo:42043:1,2010-05-03T21:30:00Z,28.9818,-94.9186,2.0,253.9008857,44.1409753,-99999.0,'11111222,11111222,99999999' 
TABS,ioos:station:wmo:42043:1,2010-05-03T22:00:00Z,28.9818,-94.9186,2.0,254.7241866,39.58864736,-99999.0,'11111222,11111222,99999999' 
TABS,ioos:station:wmo:42043:1,2010-05-03T22:30:00Z,28.9818,-94.9186,2.0,259.7302366,34.66532129,-99999.0,'11111222,11111222,99999999' 
TABS,ioos:station:wmo:42043:1,2010-05-03T23:00:00Z,28.9818,-94.9186,2.0,248.9843565,33.29459416,-99999.0,'11111222,11111222,99999999' 
TABS,ioos:station:wmo:42043:1,2010-05-03T23:30:00Z,28.9818,-94.9186,2.0,247.7545038,30.93220005,-99999.0,'11111222,11111222,99999999' 
TABS,ioos:station:wmo:42043:1,2010-05-04T00:00:00Z,28.9818,-94.9186,2.0,248.7310291,31.15173992,-99999.0,'11111222,11111222,99999999' 
TABS,ioos:station:wmo:42043:1,2010-05-04T00:30:00Z,28.9818,-94.9186,2.0,255.2994479,25.53586497,-99999.0,'11111222,11111222,99999999' 
TABS,ioos:station:wmo:42043:1,2010-05-04T01:00:00Z,28.9818,-94.9186,2.0,248.852897,23.7278423,-99999.0,'11111222,11111222,99999999' 
TABS,ioos:station:wmo:42043:1,2010-05-04T01:30:00Z,28.9818,-94.9186,2.0,236.7247689,18.37215284,-99999.0,'11111222,11111222,99999999' 
TABS,ioos:station:wmo:42043:1,2010-05-04T02:00:00Z,28.9818,-94.9186,2.0,219.774667,19.17864698,-99999.0,'11111222,11111222,99999999' 
TABS,ioos:station:wmo:42043:1,2010-05-04T02:30:00Z,28.9818,-94.9186,2.0,213.5474603,18.98189927,-99999.0,'11111222,11111222,99999999' 
TABS,ioos:station:wmo:42043:1,2010-05-04T03:00:00Z,28.9818,-94.9186,2.0,200.3777148,19.95912323,-99999.0,'11111222,11111222,99999999' 
TABS,ioos:station:wmo:42043:1,2010-05-04T03:30:00Z,28.9818,-94.9186,2.0,198.1676035,22.38600679,-99999.0,'11111222,11111222,99999999' 
TABS,ioos:station:wmo:42043:1,2010-05-04T04:00:00Z,28.9818,-94.9186,2.0,198.3014009,25.82639154,-99999.0,'11111222,11111222,99999999' 
TABS,ioos:station:wmo:42043:1,2010-05-04T04:30:00Z,28.9818,-94.9186,2.0,200.2161081,26.651908,-99999.0,'11111222,11111222,99999999' 
TABS,ioos:station:wmo:42043:1,2010-05-04T05:00:00Z,28.9818,-94.9186,2.0,192.8769165,29.6148088,-99999.0,'11111222,11111222,99999999' 
TABS,ioos:station:wmo:42043:1,2010-05-04T05:30:00Z,28.9818,-94.9186,2.0,199.8177889,32.62207382,-99999.0,'11111222,11111222,99999999' 
TABS,ioos:station:wmo:42043:1,2010-05-04T06:00:00Z,28.9818,-94.9186,2.0,199.5214742,36.17980238,-99999.0,'11111222,11111222,99999999' 
TABS,ioos:station:wmo:42043:1,2010-05-04T06:30:00Z,28.9818,-94.9186,2.0,207.2099034,41.70531141,-99999.0,'11111222,11111222,99999999' 
TABS,ioos:station:wmo:42043:1,2010-05-04T07:00:00Z,28.9818,-94.9186,2.0,207.1250373,43.44887801,-99999.0,'11111222,11111222,99999999' 
TABS,ioos:station:wmo:42043:1,2010-05-04T07:30:00Z,28.9818,-94.9186,2.0,209.399101,46.48658301,-99999.0,'11111222,11111222,99999999' 
TABS,ioos:station:wmo:42043:1,2010-05-04T08:00:00Z,28.9818,-94.9186,2.0,213.4084258,45.74945027,-99999.0,'11111222,11111222,99999999' 
TABS,ioos:station:wmo:42043:1,2010-05-04T08:30:00Z,28.9818,-94.9186,2.0,213.3065805,47.27538154,-99999.0,'11111222,11111222,99999999' 
TABS,ioos:station:wmo:42043:1,2010-05-04T09:00:00Z,28.9818,-94.9186,2.0,218.091421,49.61728126,-99999.0,'11111222,11111222,99999999' 
TABS,ioos:station:wmo:42043:1,2010-05-04T09:30:00Z,28.9818,-94.9186,2.0,220.2707546,44.60055829,-99999.0,'11111222,11111222,99999999' 
TABS,ioos:station:wmo:42043:1,2010-05-04T10:00:00Z,28.9818,-94.9186,2.0,222.5874065,44.18383075,-99999.0,'11111222,11111222,99999999' 
TABS,ioos:station:wmo:42043:1,2010-05-04T10:30:00Z,28.9818,-94.9186,2.0,225.4611571,39.50733729,-99999.0,'11111222,11111222,99999999' 
TABS,ioos:station:wmo:42043:1,2010-05-04T11:00:00Z,28.9818,-94.9186,2.0,238.0228124,34.04607613,-99999.0,'11111222,11111222,99999999' 
TABS,ioos:station:wmo:42043:1,2010-05-04T11:30:00Z,28.9818,-94.9186,2.0,246.475463,32.11938511,-99999.0,'11111222,11111222,99999999' 
TABS,ioos:station:wmo:42043:1,2010-05-04T12:00:00Z,28.9818,-94.9186,2.0,244.6150158,34.73350688,-99999.0,'11111222,11111222,99999999' 
TABS,ioos:station:wmo:42043:1,2010-05-04T12:30:00Z,28.9818,-94.9186,2.0,250.5249741,37.64362629,-99999.0,'11111222,11111222,99999999' 
TABS,ioos:station:wmo:42043:1,2010-05-04T13:00:00Z,28.9818,-94.9186,2.0,255.5445202,36.49531066,-99999.0,'11111222,11111222,99999999' 
TABS,ioos:station:wmo:42043:1,2010-05-04T13:30:00Z,28.9818,-94.9186,2.0,265.4458218,35.14093055,-99999.0,'11111222,11111222,99999999' 
TABS,ioos:station:wmo:42043:1,2010-05-04T14:00:00Z,28.9818,-94.9186,2.0,274.614281,31.45192204,-99999.0,'11111222,11111222,99999999' 
TABS,ioos:station:wmo:42043:1,2010-05-04T14:30:00Z,28.9818,-94.9186,2.0,276.5163508,29.52069444,-99999.0,'11111222,11111222,99999999' 
TABS,ioos:station:wmo:42043:1,2010-05-04T15:00:00Z,28.9818,-94.9186,2.0,277.8606182,25.51976685,-99999.0,'11111222,11111222,99999999' 
TABS,ioos:station:wmo:42043:1,2010-05-04T15:30:00Z,28.9818,-94.9186,2.0,281.7768438,25.77247563,-99999.0,'11111222,11111222,99999999' 
TABS,ioos:station:wmo:42043:1,2010-05-04T16:00:00Z,28.9818,-94.9186,2.0,286.5817182,21.41033629,-99999.0,'11111222,11111222,99999999' 